Weather reports worldwide

Advertisment
Belgrad, Serbia (13274): temperature & dewpoint: 16.06.2018 07:00:00 - 22.06.2018 07:00:00 (CEST)Belgrad, Serbia (13274): wind speed: 16.06.2018 07:00:00 - 22.06.2018 07:00:00 (CEST)Belgrad, Serbia (13274): wind direction: 16.06.2018 07:00:00 - 22.06.2018 07:00:00 (CEST)Belgrad, Serbia (13274): reduced air pressure: 16.06.2018 07:00:00 - 22.06.2018 07:00:00 (CEST)Belgrad, Serbia (13274): visibility: 16.06.2018 07:00:00 - 22.06.2018 07:00:00 (CEST)
Date & Time tt [°C] td [°C] ff [km/h] ff [kn] dd ppp [hPa] vv [km]
22.06.2018 07:00:00 - - - - - - -
22.06.2018 06:00:00 - - - - - - -
22.06.2018 05:00:00 21,0 16,5 4 2 S 1010,8 30
22.06.2018 04:00:00 - - - - - - -
22.06.2018 03:00:00 - - - - - - -
22.06.2018 02:00:00 21,7 16,6 4 2 SSE 1010,7 30
22.06.2018 01:00:00 - - - - - - -
22.06.2018 00:00:00 - - - - - - -
21.06.2018 23:00:00 23,3 15,6 7 4 SE 1011,8 30
21.06.2018 22:00:00 - - - - - - -
21.06.2018 21:00:00 - - - - - - -
21.06.2018 20:00:00 26,0 18,3 11 6 SE 1011,8 25
21.06.2018 19:00:00 - - - - - - -
21.06.2018 18:00:00 - - - - - - -
21.06.2018 17:00:00 29,5 18,4 11 6 SE 1011,8 25
21.06.2018 16:00:00 - - - - - - -
21.06.2018 15:00:00 - - - - - - -
21.06.2018 14:00:00 28,1 18,9 7 4 SE 1013,9 20
21.06.2018 13:00:00 - - - - - - -
21.06.2018 12:00:00 - - - - - - -
21.06.2018 11:00:00 28,8 19,2 7 4 NNE 1015,8 20
21.06.2018 10:00:00 - - - - - - -
21.06.2018 09:00:00 - - - - - - -
21.06.2018 08:00:00 24,2 18,7 4 2 WNW 1017,3 20
21.06.2018 07:00:00 - - - - - - -
21.06.2018 06:00:00 - - - - - - -
21.06.2018 05:00:00 20,8 18,7 7 4 SSE 1017,2 20
21.06.2018 04:00:00 - - - - - - -
21.06.2018 03:00:00 - - - - - - -
21.06.2018 02:00:00 21,8 18,2 4 2 SSE 1017,9 20
21.06.2018 01:00:00 - - - - - - -
21.06.2018 00:00:00 - - - - - - -
20.06.2018 23:00:00 24,2 18,2 4 2 SSE 1018,6 20
20.06.2018 22:00:00 - - - - - - -
20.06.2018 21:00:00 - - - - - - -
20.06.2018 20:00:00 28,2 18,6 4 2 NE 1017,7 20
20.06.2018 19:00:00 - - - - - - -
20.06.2018 18:00:00 - - - - - - -
20.06.2018 17:00:00 30,4 17,5 7 4 NE 1018,3 15
20.06.2018 16:00:00 - - - - - - -
20.06.2018 15:00:00 - - - - - - -
20.06.2018 14:00:00 29,4 18,5 4 2 NW 1020,0 15
20.06.2018 13:00:00 - - - - - - -
20.06.2018 12:00:00 - - - - - - -
20.06.2018 11:00:00 26,0 19,7 7 4 W 1021,1 10
20.06.2018 10:00:00 - - - - - - -
20.06.2018 09:00:00 - - - - - - -
20.06.2018 08:00:00 21,4 18,4 7 4 SW 1021,1 10
20.06.2018 07:00:00 - - - - - - -
20.06.2018 06:00:00 - - - - - - -
20.06.2018 05:00:00 19,0 17,8 4 2 W 1020,6 10
20.06.2018 04:00:00 - - - - - - -
20.06.2018 03:00:00 - - - - - - -
20.06.2018 02:00:00 20,0 18,8 4 2 WSW 1020,1 10
20.06.2018 01:00:00 - - - - - - -
20.06.2018 00:00:00 - - - - - - -
19.06.2018 23:00:00 21,5 19,9 4 2 WSW 1019,5 10
19.06.2018 22:00:00 - - - - - - -
19.06.2018 21:00:00 - - - - - - -
19.06.2018 20:00:00 23,3 21,1 4 2 WSW 1018,3 10
19.06.2018 19:00:00 - - - - - - -
19.06.2018 18:00:00 - - - - - - -
19.06.2018 17:00:00 25,3 20,0 4 2 NW 1017,3 15
19.06.2018 16:00:00 - - - - - - -
19.06.2018 15:00:00 - - - - - - -
19.06.2018 14:00:00 23,4 18,0 4 2 N 1017,3 10
19.06.2018 13:00:00 - - - - - - -
19.06.2018 12:00:00 - - - - - - -
19.06.2018 11:00:00 23,4 21,1 4 2 W 1017,6 8
19.06.2018 10:00:00 - - - - - - -
19.06.2018 09:00:00 - - - - - - -
19.06.2018 08:00:00 20,2 18,5 4 2 W 1017,1 5
19.06.2018 07:00:00 - - - - - - -
19.06.2018 06:00:00 - - - - - - -
19.06.2018 05:00:00 19,2 18,0 4 2 WSW 1016,1 6
19.06.2018 04:00:00 - - - - - - -
19.06.2018 03:00:00 - - - - - - -
19.06.2018 02:00:00 19,6 18,1 4 2 WNW 1015,3 15
19.06.2018 01:00:00 - - - - - - -
19.06.2018 00:00:00 - - - - - - -
18.06.2018 23:00:00 20,2 17,8 4 2 SSW 1015,6 15
18.06.2018 22:00:00 - - - - - - -
18.06.2018 21:00:00 - - - - - - -
18.06.2018 20:00:00 22,3 18,6 4 2 WSW 1013,6 20
18.06.2018 19:00:00 - - - - - - -
18.06.2018 18:00:00 - - - - - - -
18.06.2018 17:00:00 22,7 18,5 4 2 WNW 1013,0 20
18.06.2018 16:00:00 - - - - - - -
18.06.2018 15:00:00 - - - - - - -
18.06.2018 14:00:00 25,1 18,0 7 4 W 1012,9 20
18.06.2018 13:00:00 - - - - - - -
18.06.2018 12:00:00 - - - - - - -
18.06.2018 11:00:00 25,3 19,5 7 4 W 1013,4 20
18.06.2018 10:00:00 - - - - - - -
18.06.2018 09:00:00 - - - - - - -
18.06.2018 08:00:00 19,9 16,6 7 4 W 1013,3 20
18.06.2018 07:00:00 - - - - - - -
18.06.2018 06:00:00 - - - - - - -
18.06.2018 05:00:00 17,6 17,2 7 4 W 1012,3 20
18.06.2018 04:00:00 - - - - - - -
18.06.2018 03:00:00 - - - - - - -
18.06.2018 02:00:00 18,7 17,6 4 2 W 1012,2 30
18.06.2018 01:00:00 - - - - - - -
18.06.2018 00:00:00 - - - - - - -
17.06.2018 23:00:00 19,8 17,4 4 2 SSW 1012,0 30
17.06.2018 22:00:00 - - - - - - -
17.06.2018 21:00:00 - - - - - - -
17.06.2018 20:00:00 23,0 17,6 4 2 NNE 1011,4 30
17.06.2018 19:00:00 - - - - - - -
17.06.2018 18:00:00 - - - - - - -
17.06.2018 17:00:00 26,9 16,9 7 4 NNW 1010,3 25
17.06.2018 16:00:00 - - - - - - -
17.06.2018 15:00:00 - - - - - - -
17.06.2018 14:00:00 26,6 18,0 4 2 W 1010,9 25
17.06.2018 13:00:00 - - - - - - -
17.06.2018 12:00:00 - - - - - - -
17.06.2018 11:00:00 21,7 17,6 7 4 WSW 1012,4 17
17.06.2018 10:00:00 - - - - - - -
17.06.2018 09:00:00 - - - - - - -
17.06.2018 08:00:00 17,8 16,8 4 2 WSW 1012,2 4,0
17.06.2018 07:00:00 - - - - - - -
17.06.2018 06:00:00 - - - - - - -
17.06.2018 05:00:00 17,6 16,9 4 2 WSW 1011,4 2,0
17.06.2018 04:00:00 - - - - - - -
17.06.2018 03:00:00 - - - - - - -
17.06.2018 02:00:00 18,4 17,5 7 4 WSW 1011,6 2,0
17.06.2018 01:00:00 - - - - - - -
17.06.2018 00:00:00 - - - - - - -
16.06.2018 23:00:00 19,4 17,6 4 2 WSW 1011,3 20
16.06.2018 22:00:00 - - - - - - -
16.06.2018 21:00:00 - - - - - - -
16.06.2018 20:00:00 21,6 18,0 4 2 WSW 1009,6 20
16.06.2018 19:00:00 - - - - - - -
16.06.2018 18:00:00 - - - - - - -
16.06.2018 17:00:00 23,1 18,0 4 2 WSW 1009,9 15
16.06.2018 16:00:00 - - - - - - -
16.06.2018 15:00:00 - - - - - - -
16.06.2018 14:00:00 21,4 19,0 4 2 WSW 1010,3 15
16.06.2018 13:00:00 - - - - - - -
16.06.2018 12:00:00 - - - - - - -
16.06.2018 11:00:00 21,0 18,3 4 2 NW 1010,5 15
16.06.2018 10:00:00 - - - - - - -
16.06.2018 09:00:00 - - - - - - -
16.06.2018 08:00:00 18,4 17,9 4 2 W 1009,8 2,0
16.06.2018 07:00:00 - - - - - - -

tt = temperature
td = dewpoint
ff = wind speed
dd = wind direction
ppp = reduced air pressure
vv = visibility

Next stations